BAW6B KSFO-EGLL

Flight info

Callsign BAW6B
Flight time N/A
Altitude 35000
Route SNTNA2 ORRCA DCT FMG DCT TOYBE J158 MLD DCT KU81Q DCT KU87S DCT KU03U DCT KU09W DCT KP15Y DCT 49N100W 5430N09000W/N0500F370 59N080W 62N070W DCT TEFFO DCT KAGLY/M084F370 DCT CLAVY DCT 65N050W/M085F390 6430N04000W 63N030W 6030N02000W DCT GOMUP/N0488F390 DCT GINGA DCT KELLY L10 WAL UY53 NUGRA
Aircraft A388/J-SADE2E3FGHIJ3J4J5M1RWXY/LB1D1

Departure

Time N/A
Airport San Francisco International Airport (KSFO)

Arrival

Time 2026-05-05 11:01
Airport London Heathrow Airport (EGLL)
Time Latitude Longitude Altitude Speed Heading
2026-05-05 09:59 56.42616 -8.56817 39149 ft 510 kts 136°
2026-05-05 09:59 56.40110 -8.52235 39146 ft 510 kts 136°
2026-05-05 10:00 56.35132 -8.43157 39145 ft 510 kts 136°
2026-05-05 10:00 56.30114 -8.34044 39140 ft 510 kts 136°
2026-05-05 10:01 56.25135 -8.25037 39149 ft 509 kts 136°
2026-05-05 10:01 56.20132 -8.16021 39144 ft 509 kts 136°
2026-05-05 10:02 56.15118 -8.07022 39138 ft 509 kts 136°
2026-05-05 10:02 56.10131 -7.98105 39139 ft 509 kts 136°
2026-05-05 10:03 56.05106 -7.89156 39126 ft 509 kts 136°
2026-05-05 10:03 56.00082 -7.80242 39135 ft 508 kts 136°
2026-05-05 10:04 55.95060 -7.71368 39130 ft 507 kts 136°
2026-05-05 10:04 55.90031 -7.62514 39126 ft 507 kts 136°
2026-05-05 10:05 55.85028 -7.53740 39123 ft 507 kts 137°
2026-05-05 10:05 55.79984 -7.44929 39121 ft 507 kts 137°
2026-05-05 10:06 55.74971 -7.36205 39114 ft 507 kts 137°
2026-05-05 10:06 55.69913 -7.27435 39114 ft 507 kts 137°
2026-05-05 10:07 55.64891 -7.18761 39113 ft 507 kts 137°
2026-05-05 10:07 55.59823 -7.10042 39109 ft 507 kts 137°
2026-05-05 10:08 55.54754 -7.01354 39114 ft 506 kts 137°
2026-05-05 10:08 55.49713 -6.92747 39115 ft 506 kts 137°
2026-05-05 10:09 55.44648 -6.84131 39112 ft 506 kts 137°
2026-05-05 10:09 55.39569 -6.75524 39109 ft 506 kts 137°
2026-05-05 10:10 55.34512 -6.66985 39109 ft 506 kts 137°
2026-05-05 10:10 55.29431 -6.58437 39109 ft 505 kts 137°
2026-05-05 10:11 55.24351 -6.49924 39109 ft 505 kts 137°
2026-05-05 10:11 55.19263 -6.41430 39103 ft 505 kts 137°
2026-05-05 10:12 55.14196 -6.33001 39103 ft 505 kts 137°
2026-05-05 10:12 55.09094 -6.24545 39110 ft 505 kts 138°
2026-05-05 10:13 55.04023 -6.16171 39092 ft 505 kts 138°
2026-05-05 10:13 54.98916 -6.07770 39091 ft 504 kts 138°
2026-05-05 10:14 54.93789 -5.99366 39100 ft 504 kts 138°
2026-05-05 10:14 54.88705 -5.91063 39085 ft 504 kts 138°
2026-05-05 10:15 54.83587 -5.82734 39106 ft 503 kts 138°
2026-05-05 10:15 54.78466 -5.74432 39104 ft 503 kts 138°
2026-05-05 10:16 54.73341 -5.66153 39108 ft 503 kts 138°
2026-05-05 10:16 54.68241 -5.57945 39095 ft 502 kts 138°
2026-05-05 10:17 54.63123 -5.49736 39086 ft 502 kts 138°
2026-05-05 10:17 54.57993 -5.41538 39091 ft 501 kts 138°
2026-05-05 10:18 54.52874 -5.33388 39086 ft 501 kts 139°
2026-05-05 10:18 54.47779 -5.25303 39078 ft 501 kts 139°
2026-05-05 10:19 54.42632 -5.17167 39076 ft 501 kts 139°
2026-05-05 10:19 54.37489 -5.09065 39069 ft 500 kts 139°
2026-05-05 10:20 54.32353 -5.01002 39077 ft 500 kts 139°
2026-05-05 10:20 54.27247 -4.93015 39076 ft 500 kts 139°
2026-05-05 10:21 54.22089 -4.84976 39073 ft 500 kts 139°
2026-05-05 10:21 54.16965 -4.77016 39073 ft 500 kts 139°
2026-05-05 10:22 54.11794 -4.69012 39083 ft 499 kts 139°
2026-05-05 10:22 54.06675 -4.61116 39079 ft 499 kts 139°
2026-05-05 10:23 54.01518 -4.53187 39079 ft 499 kts 139°
2026-05-05 10:23 53.96355 -4.45266 39074 ft 499 kts 139°
2026-05-05 10:24 53.91279 -4.37346 39057 ft 499 kts 134°
2026-05-05 10:24 53.87054 -4.28006 39067 ft 500 kts 125°
2026-05-05 10:25 53.83111 -4.18278 39062 ft 499 kts 125°
2026-05-05 10:25 53.79154 -4.08619 39062 ft 499 kts 126°
2026-05-05 10:26 53.75210 -3.99060 39061 ft 499 kts 126°
2026-05-05 10:26 53.71227 -3.89450 39059 ft 499 kts 126°
2026-05-05 10:27 53.67232 -3.79847 39057 ft 499 kts 126°
2026-05-05 10:27 53.63238 -3.70280 39058 ft 498 kts 126°
2026-05-05 10:28 53.59260 -3.60789 39061 ft 498 kts 126°
2026-05-05 10:28 53.55274 -3.51314 39056 ft 497 kts 126°
2026-05-05 10:29 53.51943 -3.43426 39053 ft 497 kts 126°
2026-05-05 10:29 53.47928 -3.33947 39052 ft 497 kts 126°
2026-05-05 10:30 53.43910 -3.24498 39051 ft 497 kts 126°
2026-05-05 10:30 53.39910 -3.15126 39043 ft 497 kts 126°
2026-05-05 10:31 53.35832 -3.05785 39049 ft 496 kts 128°
2026-05-05 10:31 53.31682 -2.96531 39048 ft 496 kts 128°
2026-05-05 10:32 53.27532 -2.87273 39044 ft 496 kts 128°
2026-05-05 10:32 53.23421 -2.78112 39028 ft 497 kts 128°
2026-05-05 10:33 53.19273 -2.68898 39045 ft 496 kts 128°
2026-05-05 10:33 53.15142 -2.59762 39051 ft 495 kts 128°
2026-05-05 10:34 53.11071 -2.50486 39054 ft 495 kts 125°
2026-05-05 10:34 53.07265 -2.40987 39056 ft 495 kts 125°
2026-05-05 10:35 53.02994 -2.32083 39041 ft 492 kts 136°
2026-05-05 10:35 52.97756 -2.24856 38744 ft 486 kts 148°
2026-05-05 10:36 52.94892 -2.21855 38003 ft 486 kts 149°
2026-05-05 10:36 52.92017 -2.18879 37111 ft 487 kts 148°
2026-05-05 10:36 52.89164 -2.15910 36156 ft 490 kts 148°
2026-05-05 10:36 52.86267 -2.12889 35175 ft 493 kts 147°
2026-05-05 10:37 52.83364 -2.09863 34321 ft 492 kts 147°
2026-05-05 10:37 52.80464 -2.06842 33298 ft 492 kts 147°
2026-05-05 10:37 52.77564 -2.03824 32318 ft 491 kts 147°
2026-05-05 10:37 52.74719 -2.00871 31663 ft 484 kts 147°
2026-05-05 10:38 52.71904 -1.97951 31315 ft 471 kts 148°
2026-05-05 10:38 52.69150 -1.95100 30763 ft 463 kts 149°
2026-05-05 10:38 52.66432 -1.92292 30171 ft 457 kts 149°
2026-05-05 10:38 52.63753 -1.89528 29525 ft 451 kts 149°
2026-05-05 10:39 52.61109 -1.86806 28963 ft 443 kts 149°
2026-05-05 10:39 52.58544 -1.84167 28404 ft 437 kts 149°
2026-05-05 10:39 52.55987 -1.81540 27841 ft 431 kts 149°
2026-05-05 10:39 52.53452 -1.78941 27285 ft 425 kts 149°
2026-05-05 10:40 52.50954 -1.76382 26727 ft 420 kts 149°
2026-05-05 10:40 52.48493 -1.73864 26228 ft 415 kts 150°
2026-05-05 10:40 52.46052 -1.71371 25688 ft 410 kts 150°
2026-05-05 10:40 52.43637 -1.68908 25141 ft 406 kts 150°
2026-05-05 10:41 52.41244 -1.66470 24607 ft 402 kts 150°
2026-05-05 10:41 52.38897 -1.64082 24068 ft 399 kts 150°
2026-05-05 10:41 52.36543 -1.61689 23511 ft 397 kts 150°
2026-05-05 10:41 52.34208 -1.59319 22921 ft 393 kts 150°
2026-05-05 10:42 52.29618 -1.54668 21830 ft 384 kts 150°
2026-05-05 10:42 52.27357 -1.52382 21294 ft 380 kts 150°
2026-05-05 10:42 52.25119 -1.50122 20778 ft 376 kts 150°
2026-05-05 10:43 52.22906 -1.47890 20255 ft 373 kts 150°
2026-05-05 10:43 52.20783 -1.45462 19770 ft 373 kts 142°
2026-05-05 10:43 52.18802 -1.42661 19423 ft 378 kts 140°
2026-05-05 10:43 52.16808 -1.39850 19022 ft 379 kts 141°
2026-05-05 10:44 52.14838 -1.37095 18654 ft 377 kts 140°
2026-05-05 10:44 52.12854 -1.34329 18265 ft 373 kts 141°
2026-05-05 10:44 52.10882 -1.31585 17867 ft 370 kts 140°
2026-05-05 10:44 52.08915 -1.28851 17487 ft 371 kts 141°
2026-05-05 10:45 52.06978 -1.26164 17118 ft 371 kts 140°
2026-05-05 10:45 52.05017 -1.23443 16741 ft 370 kts 140°
2026-05-05 10:45 52.03063 -1.20736 16366 ft 367 kts 140°
2026-05-05 10:45 52.01122 -1.18048 15990 ft 364 kts 140°
2026-05-05 10:46 51.99212 -1.15408 15827 ft 354 kts 140°
2026-05-05 10:46 51.97371 -1.12866 15692 ft 341 kts 140°
2026-05-05 10:46 51.95597 -1.10418 15584 ft 328 kts 140°
2026-05-05 10:46 51.93891 -1.08066 15464 ft 316 kts 140°
2026-05-05 10:47 51.92260 -1.05819 15353 ft 306 kts 140°
2026-05-05 10:47 51.90668 -1.03630 15190 ft 293 kts 139°
2026-05-05 10:47 51.89150 -1.01542 15000 ft 280 kts 139°
2026-05-05 10:47 51.87658 -0.99493 14464 ft 282 kts 139°
2026-05-05 10:48 51.86183 -0.97442 13978 ft 281 kts 134°
2026-05-05 10:48 51.84938 -0.94996 13504 ft 278 kts 121°
2026-05-05 10:48 51.84056 -0.92232 12978 ft 276 kts 115°
2026-05-05 10:48 51.83224 -0.89437 12516 ft 274 kts 115°
2026-05-05 10:49 51.82383 -0.86684 12028 ft 272 kts 115°
2026-05-05 10:49 51.81543 -0.83947 11547 ft 270 kts 116°
2026-05-05 10:49 51.80716 -0.81260 11077 ft 270 kts 115°
2026-05-05 10:49 51.79883 -0.78547 10645 ft 268 kts 116°
2026-05-05 10:50 51.79055 -0.75855 10408 ft 266 kts 115°
2026-05-05 10:50 51.78225 -0.73151 10041 ft 269 kts 115°
2026-05-05 10:50 51.77395 -0.70454 9735 ft 268 kts 115°
2026-05-05 10:50 51.76571 -0.67777 9424 ft 266 kts 115°
2026-05-05 10:51 51.75755 -0.65134 9201 ft 261 kts 115°
2026-05-05 10:51 51.74958 -0.62551 9066 ft 253 kts 116°
2026-05-05 10:51 51.74173 -0.60014 8734 ft 253 kts 115°
2026-05-05 10:51 51.73394 -0.57493 8517 ft 249 kts 116°
2026-05-05 10:52 51.72457 -0.55194 8214 ft 250 kts 137°
2026-05-05 10:52 51.70927 -0.53840 7994 ft 253 kts 167°
2026-05-05 10:52 51.69188 -0.53901 7928 ft 252 kts 197°
2026-05-05 10:52 51.67690 -0.55303 7738 ft 250 kts 226°
2026-05-05 10:53 51.66551 -0.57452 7494 ft 255 kts 231°
2026-05-05 10:53 51.65424 -0.59658 7250 ft 255 kts 231°
2026-05-05 10:53 51.64304 -0.61861 6998 ft 254 kts 231°
2026-05-05 10:53 51.63191 -0.64063 6735 ft 253 kts 231°
2026-05-05 10:54 51.62084 -0.66264 6446 ft 253 kts 231°
2026-05-05 10:54 51.60970 -0.68480 6075 ft 255 kts 231°
2026-05-05 10:54 51.59851 -0.70703 5648 ft 255 kts 231°
2026-05-05 10:54 51.58752 -0.72886 5273 ft 253 kts 231°
2026-05-05 10:55 51.57648 -0.75077 4924 ft 250 kts 228°
2026-05-05 10:55 51.56277 -0.76719 4563 ft 246 kts 197°
2026-05-05 10:55 51.54601 -0.77177 4183 ft 245 kts 181°
2026-05-05 10:55 51.52920 -0.77307 3817 ft 238 kts 181°
2026-05-05 10:56 51.51282 -0.77416 3420 ft 233 kts 181°
2026-05-05 10:56 51.49695 -0.77183 3199 ft 228 kts 156°
2026-05-05 10:56 51.48472 -0.75743 2984 ft 219 kts 121°
2026-05-05 10:56 51.47891 -0.73540 2783 ft 213 kts 99°
2026-05-05 10:57 51.47710 -0.71221 2576 ft 206 kts 90°
2026-05-05 10:57 51.47676 -0.69042 2493 ft 180 kts 86°
2026-05-05 10:57 51.47677 -0.68365 2493 ft 179 kts 85°
2026-05-05 10:58 51.47684 -0.66787 2401 ft 180 kts 86°
2026-05-05 10:58 51.47687 -0.64897 2152 ft 159 kts 86°
2026-05-05 10:58 51.47695 -0.63196 1927 ft 152 kts 85°
2026-05-05 10:58 51.47704 -0.61472 1722 ft 157 kts 85°
2026-05-05 10:59 51.47706 -0.59755 1493 ft 147 kts 84°
2026-05-05 10:59 51.47714 -0.58176 1311 ft 142 kts 84°
2026-05-05 10:59 51.47719 -0.56618 1108 ft 137 kts 85°
2026-05-05 10:59 51.47725 -0.55099 918 ft 136 kts 84°
2026-05-05 11:00 51.47733 -0.53564 747 ft 139 kts 84°
2026-05-05 11:00 51.47740 -0.52033 561 ft 135 kts 82°
2026-05-05 11:00 51.47742 -0.50552 365 ft 139 kts 85°
2026-05-05 11:00 51.47746 -0.49669 261 ft 136 kts 85°
2026-05-05 11:01 51.47753 -0.48169 103 ft 134 kts 86°
2026-05-05 11:01 51.47757 -0.46877 96 ft 95 kts 89°
2026-05-05 11:01 51.47760 -0.45993 93 ft 66 kts 89°
2026-05-05 11:01 51.47762 -0.45379 91 ft 40 kts 89°
2026-05-05 11:02 51.47763 -0.45009 94 ft 21 kts 91°
2026-05-05 11:02 51.47704 -0.44848 98 ft 19 kts 143°
2026-05-05 11:02 51.47631 -0.44791 94 ft 3 kts 192°
2026-05-05 11:02 51.47606 -0.44824 94 ft 9 kts 244°
2026-05-05 11:03 51.47598 -0.44950 93 ft 14 kts 269°
2026-05-05 11:03 51.47597 -0.45122 92 ft 17 kts 269°
2026-05-05 11:03 51.47597 -0.45327 95 ft 19 kts 270°
2026-05-05 11:03 51.47597 -0.45545 92 ft 20 kts 269°
2026-05-05 11:04 51.47595 -0.45776 94 ft 22 kts 270°
2026-05-05 11:04 51.47595 -0.46029 94 ft 23 kts 270°
2026-05-05 11:04 51.47594 -0.46286 94 ft 23 kts 269°
2026-05-05 11:04 51.47593 -0.46540 95 ft 23 kts 269°
2026-05-05 11:05 51.47591 -0.46774 91 ft 18 kts 268°
2026-05-05 11:05 51.47583 -0.46987 95 ft 20 kts 269°
2026-05-05 11:05 51.47582 -0.47229 95 ft 23 kts 270°
2026-05-05 11:05 51.47580 -0.47490 94 ft 25 kts 270°
2026-05-05 11:06 51.47580 -0.47741 94 ft 16 kts 270°
2026-05-05 11:06 51.47563 -0.47859 96 ft 7 kts 205°
2026-05-05 11:06 51.47485 -0.47872 95 ft 15 kts 181°
2026-05-05 11:06 51.47372 -0.47872 94 ft 11 kts 179°
2026-05-05 11:07 51.47334 -0.47871 93 ft 3 kts 163°
2026-05-05 11:07 51.47318 -0.47843 94 ft 6 kts 105°
2026-05-05 11:07 51.47316 -0.47774 91 ft 5 kts 90°
2026-05-05 11:07 51.47316 -0.47734 91 ft 1 kts 90°
2026-05-05 11:08 51.47316 -0.47733 91 ft 0 kts 90°